| time (UTC) | temp F | wind direction | speed knots | gust knots | rain 1hr in | rain 24hr in | rain mn in | humidity % | barometer mb |
| 20260506090211 | 52 | 315 | 0.0 | 0.0 | 0.00 | 0.00 | 0.00 | 80 | 1007.1 |
| 20260506083211 | 52 | 315 | 0.0 | 0.0 | 0.00 | 0.00 | 0.00 | 80 | 1007.1 |
| 20260506080212 | 52 | 315 | 0.0 | 0.0 | 0.00 | 0.00 | 0.00 | 80 | 1007.1 |
| 20260506073211 | 52 | 315 | 0.0 | 0.0 | 0.00 | 0.00 | 0.00 | 80 | 1007.1 |
| 20260506070212 | 52 | 315 | 0.0 | 0.0 | 0.00 | 0.00 | 0.00 | 80 | 1007.1 |
| 20260506060210 | 52 | 315 | 0.0 | 0.0 | 0.00 | 0.00 | 0.00 | 80 | 1007.1 |
| 20260506050211 | 52 | 315 | 0.0 | 0.0 | 0.00 | 0.00 | 0.00 | 80 | 1007.1 |
| 20260506043211 | 52 | 315 | 0.0 | 0.0 | 0.00 | 0.00 | 0.00 | 80 | 1007.1 |
| 20260506040211 | 52 | 315 | 0.0 | 0.0 | 0.00 | 0.00 | 0.00 | 80 | 1007.1 |
| 20260506033211 | 52 | 315 | 0.0 | 0.0 | 0.00 | 0.00 | 0.00 | 80 | 1007.1 |
| 20260506030212 | 52 | 315 | 0.0 | 0.0 | 0.00 | 0.00 | 0.00 | 80 | 1007.1 |
| 20260506023211 | 52 | 315 | 0.0 | 0.0 | 0.00 | 0.00 | 0.00 | 80 | 1007.1 |
| 20260506020212 | 52 | 315 | 0.0 | 0.0 | 0.00 | 0.00 | 0.00 | 80 | 1007.1 |
| 20260506013211 | 52 | 315 | 0.0 | 0.0 | 0.00 | 0.00 | 0.00 | 80 | 1007.1 |
| 20260506010212 | 52 | 315 | 0.0 | 0.0 | 0.00 | 0.00 | 0.00 | 80 | 1007.1 |
| 20260506003209 | 52 | 315 | 0.0 | 0.0 | 0.00 | 0.00 | 0.00 | 80 | 1007.1 |
| 20260506000211 | 52 | 315 | 0.0 | 0.0 | 0.00 | 0.00 | 0.00 | 80 | 1007.1 |
| 20260505233209 | 53 | 247 | 0.0 | 0.0 | 0.00 | 0.00 | 0.00 | 78 | 1007.0 |
| 20260505230209 | 54 | 225 | 0.0 | 0.0 | 0.00 | 0.00 | 0.00 | 78 | 1007.3 |
| 20260505223210 | 55 | 247 | 1.7 | 0.0 | 0.00 | 0.00 | 0.00 | 77 | 1007.4 |
| 20260505220209 | 56 | 270 | 6.1 | 0.0 | 0.00 | 0.00 | 0.00 | 76 | 1007.6 |
| 20260505213211 | 56 | 315 | 4.3 | 0.0 | 0.00 | 0.00 | 0.00 | 75 | 1007.4 |
| 20260505210215 | 57 | 247 | 2.6 | 0.0 | 0.00 | 0.00 | 0.00 | 74 | 1007.1 |
| 20260505203209 | 58 | 247 | 2.6 | 0.0 | 0.00 | 0.00 | 0.00 | 73 | 1007.3 |
| 20260505200210 | 60 | 247 | 4.3 | 0.0 | 0.00 | 0.00 | 0.00 | 70 | 1006.9 |
| 20260505193209 | 60 | 202 | 0.0 | 0.0 | 0.00 | 0.00 | 0.00 | 69 | 1006.2 |
| 20260505190215 | 61 | 270 | 0.0 | 0.0 | 0.00 | 0.00 | 0.00 | 66 | 1006.1 |
| 20260505183212 | 64 | 270 | 4.3 | 0.0 | 0.00 | 0.00 | 0.00 | 62 | 1005.8 |
| 20260505180211 | 64 | 202 | 0.9 | 0.0 | 0.00 | 0.00 | 0.00 | 62 | 1005.6 |
| 20260505173210 | 65 | 247 | 0.0 | 0.0 | 0.00 | 0.00 | 0.00 | 60 | 1005.6 |
| 20260505170210 | 66 | 225 | 2.6 | 0.0 | 0.00 | 0.00 | 0.00 | 59 | 1005.5 |
| 20260505163211 | 67 | 270 | 5.2 | 0.0 | 0.00 | 0.00 | 0.00 | 61 | 1005.3 |
| 20260505153210 | 65 | 225 | 1.7 | 0.0 | 0.00 | 0.00 | 0.00 | 64 | 1005.5 |
| 20260505150215 | 69 | 202 | 3.5 | 0.0 | 0.00 | 0.00 | 0.00 | 57 | 1006.5 |
| 20260505140210 | 63 | 157 | 0.0 | 0.0 | 0.00 | 0.00 | 0.00 | 66 | 1006.2 |
| 20260505130210 | 66 | 225 | 3.5 | 0.0 | 0.00 | 0.00 | 0.00 | 63 | 1006.8 |
| 20260505123210 | 66 | 90 | 2.6 | 0.0 | 0.00 | 0.00 | 0.00 | 59 | 1006.7 |
| 20260505120210 | 68 | 202 | 4.3 | 0.0 | 0.00 | 0.00 | 0.00 | 56 | 1006.2 |
| 20260505113210 | 69 | 247 | 5.2 | 0.0 | 0.00 | 0.00 | 0.00 | 56 | 1006.5 |
| 20260505110211 | 68 | 247 | 6.1 | 0.0 | 0.00 | 0.00 | 0.00 | 57 | 1006.2 |
| 20260505100212 | 69 | 202 | 3.5 | 0.0 | 0.00 | 0.00 | 0.00 | 57 | 1006.5 |
| 20260505093212 | 68 | 247 | 1.7 | 0.0 | 0.00 | 0.00 | 0.00 | 59 | 1006.9 |